timestamp,surface_pressure_avg,surface_temp_avg,battery_voltage,lat,long
2018-11-03 00:00:00+00:00,228.7531,9.5,13.13,47.84626,-54.09684
2018-11-03 00:10:00+00:00,219.2214,9.5,13.05,47.84626,-54.09684
2018-11-03 00:20:00+00:00,214.4581,9.49,13.13,47.84626,-54.09684
2018-11-03 00:30:00+00:00,215.2198,9.47,13.13,47.84626,-54.09684
2018-11-03 00:40:00+00:00,220.3164,9.42,13.13,47.84626,-54.09684
2018-11-03 00:50:00+00:00,221.093,9.4,13.13,47.84626,-54.09684
2018-11-03 01:00:00+00:00,222.0698,9.4,13.05,47.84626,-54.09684
2018-11-03 01:10:00+00:00,214.8231,9.4,13.05,47.84626,-54.09684
2018-11-03 01:20:00+00:00,212.2614,9.4,13.13,47.84626,-54.09684
2018-11-03 01:30:00+00:00,214.2781,9.4,13.13,47.84626,-54.09684
2018-11-03 01:40:00+00:00,217.6814,9.42,13.13,47.84626,-54.09684
2018-11-03 01:50:00+00:00,217.7197,9.5,13.13,47.84626,-54.09684
2018-11-03 02:00:00+00:00,218.6164,9.5,13.05,47.84626,-54.09684
2018-11-03 02:10:00+00:00,219.4765,9.5,13.05,47.84626,-54.09684
2018-11-03 02:20:00+00:00,214.4314,9.5,13.13,47.84626,-54.09684
2018-11-03 02:30:00+00:00,208.4048,9.5,13.13,47.84626,-54.09684
2018-11-03 02:40:00+00:00,209.5464,9.5,13.13,47.84626,-54.09684
2018-11-03 02:50:00+00:00,216.6531,9.5,13.13,47.84626,-54.09684
2018-11-03 03:00:00+00:00,223.9164,9.5,13.05,47.84626,-54.09684
2018-11-03 03:10:00+00:00,221.8214,9.5,12.97,47.84626,-54.09684
2018-11-03 03:20:00+00:00,219.4165,9.5,13.05,47.84626,-54.09684
2018-11-03 03:30:00+00:00,224.0115,9.5,13.13,47.84626,-54.09684
2018-11-03 03:40:00+00:00,233.0697,9.5,13.13,47.84626,-54.09684
2018-11-03 03:50:00+00:00,245.5964,9.5,13.13,47.84626,-54.09684
2018-11-03 04:00:00+00:00,245.7831,9.5,13.05,47.84626,-54.09684
2018-11-03 04:10:00+00:00,245.9448,9.3,12.97,47.84626,-54.09684
2018-11-03 04:20:00+00:00,253.1998,9.31,13.05,47.84626,-54.09684
2018-11-03 04:30:00+00:00,262.4481,9.4,13.05,47.84626,-54.09684
2018-11-03 04:40:00+00:00,265.5464,9.4,13.13,47.84626,-54.09684
2018-11-03 04:50:00+00:00,270.8081,9.37,13.13,47.84626,-54.09684
2018-11-03 05:00:00+00:00,282.7997,9.42,13.05,47.84626,-54.09684
2018-11-03 05:10:00+00:00,292.7581,9.4,12.97,47.84626,-54.09684
2018-11-03 05:20:00+00:00,291.358,9.28,13.05,47.84626,-54.09684
2018-11-03 05:30:00+00:00,295.0114,9.2,13.05,47.84626,-54.09684
2018-11-03 05:40:00+00:00,306.4447,9.38,13.13,47.84626,-54.09684
2018-11-03 05:50:00+00:00,311.1263,9.4,13.13,47.84626,-54.09684
2018-11-03 06:00:00+00:00,304.5931,9.3,13.05,47.84626,-54.09684
2018-11-03 06:10:00+00:00,307.4164,9.09,12.97,47.84626,-54.09684
2018-11-03 06:20:00+00:00,313.2629,9.17,13.05,47.84626,-54.09684
2018-11-03 06:30:00+00:00,314.978,9.3,13.05,47.84626,-54.09684
2018-11-03 06:40:00+00:00,309.358,9.27,13.05,47.84626,-54.09684
2018-11-03 06:50:00+00:00,311.998,9.25,13.13,47.84626,-54.09684
2018-11-03 07:00:00+00:00,321.048,9.2,13.05,47.84626,-54.09684
2018-11-03 07:10:00+00:00,328.9514,9.3,12.97,47.84626,-54.09684
2018-11-03 07:20:00+00:00,327.2213,9.3,13.05,47.84626,-54.09684
2018-11-03 07:30:00+00:00,319.4281,9.34,13.05,47.84626,-54.09684
2018-11-03 07:40:00+00:00,326.7513,9.4,13.05,47.84626,-54.09684
2018-11-03 07:50:00+00:00,338.2296,9.3,13.05,47.84626,-54.09684
2018-11-03 08:00:00+00:00,335.2746,9.26,13.05,47.84626,-54.09684
2018-11-03 08:10:00+00:00,327.468,9.27,12.97,47.84626,-54.09684
2018-11-03 08:20:00+00:00,330.423,9.3,13.05,47.84626,-54.09684
2018-11-03 08:30:00+00:00,332.0913,9.2,13.05,47.84626,-54.09684
2018-11-03 08:40:00+00:00,323.3397,9.16,13.05,47.84626,-54.09684
2018-11-03 08:50:00+00:00,317.4897,9.16,13.05,47.84626,-54.09684
2018-11-03 09:00:00+00:00,322.1213,9.1,13.05,47.84626,-54.09684
2018-11-03 09:10:00+00:00,316.6997,9.1,12.97,47.84626,-54.09684
2018-11-03 09:20:00+00:00,301.6296,9.2,13.05,47.84626,-54.09684
2018-11-03 09:30:00+00:00,296.9048,9.28,13.05,47.84626,-54.09684
2018-11-03 09:40:00+00:00,295.9314,9.29,13.05,47.84626,-54.09684
2018-11-03 09:50:00+00:00,293.1713,9.2,13.05,47.84626,-54.09684
2018-11-03 10:00:00+00:00,286.243,9.2,13.05,47.84626,-54.09684
2018-11-03 10:10:00+00:00,288.8831,9.2,12.97,47.84626,-54.09684
2018-11-03 10:20:00+00:00,281.5031,9.2,13.05,47.84626,-54.09684
2018-11-03 10:30:00+00:00,269.8331,9.19,13.05,47.84626,-54.09684
2018-11-03 10:40:00+00:00,266.3864,9.19,13.05,47.84626,-54.09684
2018-11-03 10:50:00+00:00,261.1114,9.2,13.05,47.84626,-54.09684
2018-11-03 11:00:00+00:00,252.4997,9.2,13.05,47.84626,-54.09684
2018-11-03 11:10:00+00:00,246.1147,9.19,12.97,47.84626,-54.09684
2018-11-03 11:20:00+00:00,241.8947,9.2,13.05,47.84626,-54.09684
2018-11-03 11:30:00+00:00,232.3014,9.2,13.05,47.84626,-54.09684
2018-11-03 11:40:00+00:00,225.1631,9.19,13.05,47.84626,-54.09684
2018-11-03 11:50:00+00:00,226.4582,9.2,13.13,47.84626,-54.09684
2018-11-03 12:00:00+00:00,225.8232,9.19,13.05,47.84626,-54.09684
2018-11-03 12:10:00+00:00,220.4598,9.19,12.97,47.84626,-54.09684
2018-11-03 12:20:00+00:00,226.3898,9.2,13.05,47.84626,-54.09684
2018-11-03 12:30:00+00:00,227.2981,9.39,13.13,47.84626,-54.09684
2018-11-03 12:40:00+00:00,219.3348,9.3,13.13,47.84626,-54.09684
2018-11-03 12:50:00+00:00,214.8964,9.3,13.13,47.84626,-54.09684
2018-11-03 13:00:00+00:00,223.9031,9.39,13.13,47.84626,-54.09684
2018-11-03 13:10:00+00:00,224.0914,9.3,13.05,47.84626,-54.09684
2018-11-03 13:20:00+00:00,215.0681,9.2,13.13,47.84626,-54.09684
2018-11-03 13:30:00+00:00,216.1181,9.22,13.13,47.84626,-54.09684
2018-11-03 13:40:00+00:00,219.0548,9.44,13.21,47.84626,-54.09684
2018-11-03 13:50:00+00:00,210.4281,9.3,13.21,47.84626,-54.09684
2018-11-03 14:00:00+00:00,207.6147,9.21,13.13,47.84626,-54.09684
2018-11-03 14:10:00+00:00,210.2264,9.26,13.05,47.84626,-54.09684
2018-11-03 14:20:00+00:00,210.6965,9.3,13.05,47.84626,-54.09684
2018-11-03 14:30:00+00:00,208.9081,9.23,13.05,47.84626,-54.09684
2018-11-03 14:40:00+00:00,205.8765,9.2,13.13,47.84626,-54.09684
2018-11-03 14:50:00+00:00,211.5414,9.26,13.13,47.84626,-54.09684
2018-11-03 15:00:00+00:00,214.2714,9.4,13.05,47.84626,-54.09684
2018-11-03 15:10:00+00:00,207.6664,9.3,12.97,47.84626,-54.09684
2018-11-03 15:20:00+00:00,209.7314,9.3,13.05,47.84626,-54.09684
2018-11-03 15:30:00+00:00,214.6948,9.3,13.05,47.84626,-54.09684
2018-11-03 15:40:00+00:00,216.1198,9.3,13.13,47.84626,-54.09684
2018-11-03 15:50:00+00:00,219.8514,9.3,13.13,47.84626,-54.09684
2018-11-03 16:00:00+00:00,221.4764,9.3,13.05,47.84626,-54.09684
2018-11-03 16:10:00+00:00,223.9147,9.3,12.97,47.84626,-54.09684
2018-11-03 16:20:00+00:00,232.8831,9.3,13.05,47.84626,-54.09684
2018-11-03 16:30:00+00:00,240.3548,9.3,13.05,47.84626,-54.09684
2018-11-03 16:40:00+00:00,242.6047,9.32,13.05,47.84626,-54.09684
2018-11-03 16:50:00+00:00,248.7948,9.4,13.13,47.84626,-54.09684
2018-11-03 17:00:00+00:00,259.7098,9.48,13.05,47.84626,-54.09684
2018-11-03 17:10:00+00:00,269.1847,9.49,12.97,47.84626,-54.09684
2018-11-03 17:20:00+00:00,271.0731,9.5,13.05,47.84626,-54.09684
2018-11-03 17:30:00+00:00,276.1514,9.5,13.05,47.84626,-54.09684
2018-11-03 17:40:00+00:00,286.6947,9.5,13.05,47.84626,-54.09684
2018-11-03 17:50:00+00:00,292.6097,9.5,13.05,47.84626,-54.09684
2018-11-03 18:00:00+00:00,294.478,9.5,13.05,47.84626,-54.09684
2018-11-03 18:10:00+00:00,305.0846,9.53,12.97,47.84626,-54.09684
2018-11-03 18:20:00+00:00,307.2164,9.55,13.05,47.84626,-54.09684
2018-11-03 18:30:00+00:00,306.0981,9.53,13.05,47.84626,-54.09684
2018-11-03 18:40:00+00:00,318.0062,9.51,13.05,47.84626,-54.09684
2018-11-03 18:50:00+00:00,328.3946,9.54,13.05,47.84626,-54.09684
2018-11-03 19:00:00+00:00,330.808,9.5,12.97,47.84626,-54.09684
2018-11-03 19:10:00+00:00,332.8414,9.5,12.97,47.84626,-54.09684
2018-11-03 19:20:00+00:00,343.0579,9.55,13.05,47.84626,-54.09684
2018-11-03 19:30:00+00:00,348.6463,9.5,13.05,47.84626,-54.09684
2018-11-03 19:40:00+00:00,348.6163,9.5,13.05,47.84626,-54.09684
2018-11-03 19:50:00+00:00,354.528,9.5,13.05,47.84626,-54.09684
2018-11-03 20:00:00+00:00,359.4312,9.51,12.97,47.84626,-54.09684
2018-11-03 20:10:00+00:00,358.3279,9.5,12.97,47.84626,-54.09684
2018-11-03 20:20:00+00:00,362.6463,9.5,13.05,47.84626,-54.09684
2018-11-03 20:30:00+00:00,361.0129,9.5,13.05,47.84626,-54.09684
2018-11-03 20:40:00+00:00,365.4913,9.55,13.05,47.84626,-54.09684
2018-11-03 20:50:00+00:00,371.8229,9.59,13.05,47.84626,-54.09684
2018-11-03 21:00:00+00:00,371.9712,9.57,12.97,47.84626,-54.09684
2018-11-03 21:10:00+00:00,363.5013,9.5,12.97,47.84626,-54.09684
2018-11-03 21:20:00+00:00,360.2597,9.5,13.05,47.84626,-54.09684
2018-11-03 21:30:00+00:00,363.213,9.54,13.05,47.84626,-54.09684
2018-11-03 21:40:00+00:00,347.8446,9.54,13.05,47.84626,-54.09684
2018-11-03 21:50:00+00:00,336.6746,9.56,13.05,47.84626,-54.09684
2018-11-03 22:00:00+00:00,339.4347,9.57,12.97,47.84626,-54.09684
2018-11-03 22:10:00+00:00,333.5747,9.57,12.97,47.84626,-54.09684
2018-11-03 22:20:00+00:00,319.863,9.58,13.05,47.84626,-54.09684
2018-11-03 22:30:00+00:00,313.9263,9.53,13.05,47.84626,-54.09684
2018-11-03 22:40:00+00:00,318.0597,9.55,13.05,47.84626,-54.09684
2018-11-03 22:50:00+00:00,309.7863,9.51,13.05,47.84626,-54.09684
2018-11-03 23:00:00+00:00,293.703,9.5,12.97,47.84626,-54.09684
2018-11-03 23:10:00+00:00,288.5864,9.5,12.97,47.84626,-54.09684
2018-11-03 23:20:00+00:00,285.0897,9.5,13.05,47.84626,-54.09684
2018-11-03 23:30:00+00:00,270.1398,9.5,13.05,47.84626,-54.09684
2018-11-03 23:40:00+00:00,258.0464,9.5,13.05,47.84626,-54.09684
2018-11-03 23:50:00+00:00,258.2514,9.5,13.05,47.84626,-54.09684
